SCP
0 0 0 0 0 0 0 0 0 0 0 0 0 0 0 0 0 0 0 0 0 0 0 0 0 0 0 0 0 0 0 0 0 0 0 1 1 1
0 0 0 0 0 0 0 0 0 0 0 0 0 0 0 0 0 0 0 0 0 0 0 0 0 0 0 0 0 0 0 0 0 0 0 0 1 1
0 0 0 0 0 0 0 0 0 0 0 0 0 0 0 0 0 0 0 0 0 0 0 0 0 0 0 0 0 0 0 0 0 0 0 0 0 1
0 0 0 0 0 0 0 0 0 0 0 0 0 0 0 0 0 0 0 0 0 0 0 0 0 0 0 0 0 0 0 0 0 0 0 0 0 0
0 0 0 0 0 0 0 0 0 0 0 0 0 0 0 0 0 0 0 0 0 0 0 0 0 0 0 0 0 0 0 0 0 0 0 0 0 0
0 0 0 0 0 0 0 0 0 0 0 0 0 0 0 0 0 0 0 0 0 0 0 0 0 0 0 0 0 0 0 0 0 0 0 0 0 0
0 0 0 0 0 0 0 0 0 0 0 0 0 0 0 0 0 0 0 0 0 0 0 0 0 0 0 0 0 0 0 0 0 0 0 0 0 0
0 0 0 0 0 0 0 0 0 0 0 0 0 0 0 0 0 0 0 0 0 0 0 0 0 0 0 0 0 0 0 0 0 0 0 0 0 0
0 0 0 0 0 0 0 0 0 0 0 0 0 0 0 0 0 0 0 0 0 0 0 0 0 0 0 0 0 0 0 0 0 0 0 0 0 0
0 0 0 0 0 0 0 0 0 0 0 0 0 0 0 0 0 0 0 0 0 0 0 0 0 0 0 0 0 0 0 0 0 0 0 0 0 0
0 0 0 0 0 0 0 0 0 0 0 0 0 0 0 0 0 0 0 0 0 0 0 0 0 0 0 0 0 0 0 0 0 0 0 0 0 0
0 0 0 0 0 0 0 0 0 0 0 0 0 0 0 0 0 0 0 0 0 0 0 0 0 0 0 0 0 0 0 0 0 0 0 0 0 0
0 0 0 0 0 0 0 0 0 0 0 0 0 0 0 0 0 0 0 0 0 0 0 0 0 0 0 0 0 0 0 0 0 0 0 0 0 0
0 0 0 0 0 0 0 0 0 0 0 1 1 0 0 0 0 0 0 0 0 0 0 0 0 0 0 0 0 0 0 0 0 0 0 0 0 0
0 0 0 0 0 0 0 0 0 0 0 0 0 0 0 0 0 0 0 0 0 0 0 0 0 0 0 0 0 0 0 0 0 0 0 0 0 0
0 0 0 0 0 0 0 0 0 0 0 0 0 0 0 0 0 0 0 0 0 0 0 0 0 0 0 0 0 0 0 0 0 0 0 0 0 0
0 0 0 0 0 0 0 0 0 0 0 0 0 0 0 0 0 0 0 0 0 0 0 0 0 0 0 0 0 0 0 0 0 0 0 0 0 0
0 0 0 0 0 0 0 0 0 0 0 0 0 0 0 0 0 0 0 0 0 0 0 0 0 0 0 0 0 0 0 0 0 0 0 0 0 0
0 0 0 0 0 0 0 0 0 0 0 0 0 0 0 0 0 0 0 0 0 0 0 0 0 0 0 0 0 0 0 0 0 0 0 0 0 0
0 0 0 0 0 0 0 0 0 0 0 0 0 0 0 0 0 0 0 0 0 0 0 0 0 0 0 0 0 0 0 0 0 0 0 0 0 0
0 0 0 0 0 0 0 0 0 0 0 0 0 0 0 0 0 0 0 0 0 0 0 0 0 0 0 0 0 0 0 0 0 0 0 0 0 0
0 0 0 0 0 0 0 0 0 0 0 0 0 0 0 0 0 0 0 0 0 0 0 0 0 0 0 0 0 0 0 0 0 0 0 0 0 0
0 0 0 0 0 0 0 0 0 0 0 0 0 0 0 0 0 0 0 0 0 0 0 0 0 0 0 0 0 0 0 0 0 0 0 0 0 0
Wind_Speed
6 6 4 3 3 3 2 3 3 3 4 3 2 2 2 2 3 2 2 5 6 6 6 7 7 7 7 7 8 9 9 9 10 10 11 12 12 12
4 5 4 3 3 3 3 2 2 3 3 2 2 1 1 2 3 2 3 5 6 6 6 7 7 7 7 7 7 8 9 9 9 10 11 11 12 11
5 6 5 4 3 3 2 2 2 2 3 2 1 1 1 2 2 2 2 2 3 6 7 7 7 7 7 7 7 8 8 9 9 10 11 11 12 12
6 6 5 4 4 3 3 3 2 2 2 3 2 1 2 2 2 2 2 2 2 5 7 7 6 6 7 7 8 8 8 9 9 10 10 11 11 12
7 7 6 6 5 3 3 3 2 2 1 2 2 1 1 1 1 2 2 2 3 4 6 6 5 6 7 7 8 8 8 8 9 9 10 11 11 12
6 6 6 7 7 6 4 4 3 2 1 1 2 1 1 1 1 2 3 2 3 3 4 4 5 6 7 8 8 8 8 9 9 9 10 10 11 12
5 5 5 7 7 6 5 5 4 3 2 2 2 1 1 1 2 1 2 3 3 2 2 3 3 3 4 6 7 8 9 9 9 9 10 10 11 12
5 4 4 5 6 6 6 6 6 5 4 3 2 3 3 3 2 2 1 2 3 1 2 4 2 3 3 3 7 9 8 8 9 9 10 10 11 11
4 4 3 3 4 3 3 4 4 4 5 4 4 4 3 3 2 2 2 2 3 2 2 3 2 3 3 4 8 8 8 8 9 9 10 10 11 11
3 4 4 4 4 4 3 2 2 2 3 2 3 3 3 2 2 2 2 2 2 1 1 2 2 3 3 4 6 7 7 8 9 10 10 11 11 11
2 3 4 4 6 5 4 2 2 1 1 2 2 1 1 1 1 1 0 1 2 1 1 1 2 3 3 3 4 7 8 10 10 10 11 11 11 10
2 2 3 4 5 4 4 4 3 3 2 2 2 2 1 1 1 1 2 1 1 2 0 1 1 2 3 2 2 3 4 8 10 10 11 11 11 6
2 1 2 3 3 3 2 2 3 3 3 3 2 1 1 1 0 0 1 1 2 2 1 1 1 1 2 3 3 3 3 3 4 5 8 10 11 8
2 1 1 2 3 3 2 3 4 4 3 2 2 1 0 1 1 1 1 1 1 2 2 2 1 2 2 3 4 3 3 3 3 4 4 8 9 10
2 3 3 4 5 4 5 5 5 3 3 2 2 1 0 0 0 1 1 1 2 2 2 2 2 2 2 3 3 3 4 3 3 3 4 4 4 4
4 5 6 7 6 6 5 4 3 2 2 2 1 1 0 0 0 1 1 1 2 2 2 2 2 2 3 3 3 4 3 4 4 4 5 4 4 4
4 3 3 3 3 3 3 3 3 2 2 2 1 1 1 1 1 1 1 1 1 2 3 3 2 2 3 3 3 3 3 4 4 4 4 5 5 4
5 3 3 2 2 2 2 2 2 2 1 1 1 1 1 1 1 2 1 1 1 2 3 3 3 3 2 2 4 3 3 3 3 4 3 5 6 5
4 3 2 2 2 1 1 1 1 1 1 1 1 1 1 1 1 1 2 2 2 2 3 3 2 2 2 4 4 2 2 3 4 4 3 4 6 7
2 2 2 2 1 1 1 1 1 1 1 1 1 0 0 1 1 1 1 2 2 3 3 2 2 2 2 3 3 4 4 3 3 4 4 4 5 8
2 1 1 1 1 1 1 0 0 0 0 0 0 0 0 1 1 1 2 3 2 2 3 3 3 5 2 1 3 4 4 5 6 4 4 4 5 4
1 1 1 1 1 1 1 0 0 0 0 0 0 0 1 1 1 2 2 2 2 2 3 3 3 2 1 1 3 4 5 5 7 9 7 5 3 3
1 1 1 0 0 0 1 1 0 1 1 1 1 1 1 1 2 2 2 2 2 2 3 3 3 2 1 2 3 4 5 6 4 5 5 7 9 10
Wind_Direction
203 200 201 203 195 197 197 193 193 238 256 237 237 246 245 241 264 259 275 291 300 306 307 305 307 302 305 309 309 309 313 315 316 314 312 310 308 309
199 197 204 199 193 195 197 213 213 208 242 251 243 235 254 272 283 287 281 305 306 306 309 307 307 309 311 308 315 319 313 314 315 312 311 313 315 314
200 197 203 195 188 194 191 202 216 204 230 274 283 273 257 277 296 293 292 292 298 307 309 306 306 308 313 318 317 318 320 319 317 314 309 309 310 313
200 195 196 186 187 187 189 200 211 217 209 246 266 266 260 272 293 305 314 309 298 308 308 308 306 312 319 320 321 318 316 318 319 319 318 316 315 313
197 195 193 182 189 188 188 194 202 208 215 216 247 259 274 294 319 314 308 304 311 318 318 320 320 323 324 323 322 322 322 322 322 322 322 323 319 317
193 192 190 189 188 185 188 191 187 183 186 209 233 250 269 293 304 303 309 314 315 323 322 325 322 325 325 324 323 325 324 322 322 322 321 322 321 318
184 189 192 191 189 189 186 185 179 180 185 210 225 235 246 252 258 274 290 308 309 311 313 313 310 305 309 315 319 320 320 320 321 320 319 321 321 318
177 179 180 183 181 183 189 188 185 183 195 212 229 226 237 242 250 261 281 306 299 305 312 302 300 294 298 295 314 319 319 322 323 321 320 322 322 320
171 171 172 177 165 167 181 179 190 203 208 202 215 226 228 232 224 247 260 274 279 293 305 292 297 289 298 305 315 320 324 328 328 325 324 324 323 321
163 168 170 172 178 168 149 158 186 211 223 212 209 224 225 217 208 219 244 291 293 285 271 278 294 292 306 302 313 328 336 337 334 330 328 327 326 323
146 159 167 172 181 166 147 151 173 206 221 189 191 207 208 175 145 129 151 313 303 291 284 263 298 309 300 290 309 335 339 337 334 330 329 328 325 324
127 158 177 178 177 175 164 163 185 206 171 141 117 68 73 91 78 160 188 228 283 281 286 313 302 329 312 294 302 316 326 328 331 329 329 330 331 329
141 162 187 175 170 175 162 169 190 165 145 143 135 120 83 71 44 336 249 213 231 257 254 287 290 303 283 301 305 301 306 311 317 318 323 329 334 336
126 134 144 139 128 114 104 104 98 101 113 121 120 112 77 5 347 344 338 317 250 244 251 239 246 259 282 295 296 310 312 304 307 309 312 321 325 326
103 105 100 97 90 83 79 79 81 90 104 117 125 116 92 285 342 3 6 3 348 321 297 273 250 255 253 268 285 300 311 305 302 308 310 311 306 311
90 93 83 77 73 71 70 64 56 69 89 91 82 82 73 69 2 332 328 337 343 335 329 304 269 253 263 267 268 284 292 296 311 311 309 302 299 296
104 92 79 76 71 65 63 62 59 58 60 65 69 57 42 25 356 344 337 339 330 319 325 331 318 280 253 253 269 276 286 290 291 306 311 306 294 290
100 96 90 85 89 87 80 63 53 52 54 64 65 46 28 18 0 353 354 348 324 313 313 318 329 336 339 298 239 263 283 285 299 305 301 300 300 298
87 94 94 91 88 82 78 69 45 28 33 61 62 41 17 357 351 349 349 343 326 314 313 317 324 332 331 316 301 257 280 302 310 307 296 286 290 297
75 95 101 99 97 95 85 69 64 52 37 35 28 16 7 344 334 322 313 311 311 315 319 321 316 303 284 285 293 297 303 297 298 300 302 297 287 292
75 79 94 107 105 102 89 74 71 56 17 0 323 330 334 321 309 304 302 308 319 314 311 308 298 312 298 299 297 297 301 309 306 291 298 306 309 313
93 94 80 89 108 112 113 120 85 331 315 295 283 297 294 285 285 292 295 302 304 299 297 300 310 323 331 293 290 295 303 313 316 314 299 282 286 300
104 108 97 77 88 119 139 158 201 265 278 277 270 267 262 273 280 279 282 288 297 305 310 312 322 327 302 285 290 295 303 312 318 323 314 315 309 296